Regional Weather Roundup
Issued by NWS

Home | Current Version | Previous Version | Text Only | Print | Product List | Glossary On
Versions: 1 2 3 4 5 6 7 8 9 10 11 12 13 14 15 16 17 18 19 20 21 22 23 24 25 26 27 28 29 30 31 32 33 34 35 36 37 38 39 40 41 42 43 44 45 46 47 48 49 50
000
ASUS45 KCYS 170810
RWRWY

WYOMING REGIONAL WEATHER ROUNDUP
NATIONAL WEATHER SERVICE CHEYENNE WY
200 AM MDT MON JUN 17 2019

NOTE:  "FAIR" INDICATES FEW OR NO CLOUDS BELOW 12,000 FEET
WITH NO SIGNIFICANT WEATHER AND/OR OBSTRUCTIONS TO VISIBILITY.

WYZ001-170900-
YELLOWSTONE NATIONAL PARK

CITY           SKY/WX    TMP DP  RH WIND       PRES   REMARKS
LK YELLOWSTONE NOT AVBL
W YELLOWSTONE  NOT AVBL

$$
WYZ002>013-054>058-071-098>099-170900-
NORTHERN WYOMING

CITY           SKY/WX    TMP DP  RH WIND       PRES   REMARKS
JACKSON        FAIR      48  46  93 W3        30.13R
CODY           MOCLDY    54  50  86 SW3       30.11F
GREYBULL       MOCLDY    60  54  80 NW8       30.04S
WORLAND        CLOUDY    55  53  93 SW5       30.05S
SHERIDAN       FAIR      53  50  89 NW5       30.06F
BUFFALO        MOCLDY    52  49  89 W3        30.09F
GILLETTE       FAIR      48  48 100 CALM      30.06F
NEWCASTLE      CLOUDY    55  54  94 CALM      30.07

$$
WYZ014>020-022>026-101>103-170900-
CENTRAL WYOMING

CITY           SKY/WX    TMP DP  RH WIND       PRES   REMARKS
BIG PINEY      MOCLDY    44  39  82 NW3       30.14S
PINEDALE       CLOUDY    45  39  81 CALM      30.15
DUBOIS         FAIR      43  41  93 W8        30.17
LANDER         FAIR      51  51 100 CALM      30.08R
RIVERTON       FAIR      51  49  92 N6        30.10S
CASPER         CLOUDY    55  53  93 NE3       30.09S
DOUGLAS        CLOUDY    55  52  89 NE9       30.08S

$$
WYZ021-027>030-104>119-170900-
SOUTHERN WYOMING

CITY           SKY/WX    TMP DP  RH WIND       PRES   REMARKS
EVANSTON       FAIR      54  38  54 S6        30.12F
KEMMERER       FAIR      54  36  50 N7        30.16
FORT BRIDGER   FAIR      52  36  54 NW5       30.16S
ROCK SPRINGS   FAIR      50  42  74 SE5       30.14S
DIXON          CLOUDY    55  41  60 NE20      30.10S
RAWLINS        FAIR      50  47  89 N10       30.13S
SARATOGA       FAIR      50  43  76 N7        30.13R
LARAMIE        LGT RAIN  46  43  89 N8        30.15F
CHEYENNE       FAIR      52  50  93 E3        30.10S
TORRINGTON     FAIR      56  55  97 SW6       30.04R
PINE BLUFFS    FAIR      54  54 100 NE8       30.07F

$$



USA.gov is the U.S. government's official web portal to all federal, state and local government web resources and services.